| time (UTC) | temp F | wind direction | speed MPH | gust MPH | rain 1hr in | rain 24hr in | rain mn in | humidity % | barometer mb |
| 20260505003028 | 43 | 57 | 0.0 | 1.0 | 0.00 | 0.01 | 0.01 | 62 | 1012.1 |
| 20260505001534 | 43 | 57 | 0.0 | 2.0 | 0.00 | 0.01 | 0.01 | 65 | 1012.1 |
| 20260505000034 | 42 | 56 | 0.0 | 4.0 | 0.00 | 0.01 | 0.01 | 69 | 1012.3 |
| 20260504234526 | 41 | 71 | 0.0 | 3.0 | 0.01 | 0.01 | 0.01 | 74 | 1012.7 |
| 20260504233028 | 40 | 111 | 0.0 | 4.0 | 0.01 | 0.01 | 0.01 | 72 | 1013.0 |
| 20260504231530 | 40 | 182 | 0.0 | 4.0 | 0.01 | 0.01 | 0.01 | 74 | 1013.2 |
| 20260504230025 | 41 | 138 | 0.0 | 4.0 | 0.01 | 0.01 | 0.01 | 72 | 1013.1 |
| 20260504224527 | 42 | 215 | 3.0 | 11.0 | 0.00 | 0.00 | 0.00 | 65 | 1013.4 |
| 20260504223023 | 47 | 237 | 10.0 | 17.0 | 0.00 | 0.00 | 0.00 | 44 | 1012.6 |
| 20260504221522 | 49 | 277 | 2.0 | 10.0 | 0.00 | 0.00 | 0.00 | 38 | 1012.1 |
| 20260504220023 | 49 | 292 | 1.0 | 7.0 | 0.00 | 0.00 | 0.00 | 40 | 1012.0 |
| 20260504214521 | 48 | 244 | 0.0 | 3.0 | 0.00 | 0.00 | 0.00 | 41 | 1012.1 |
| 20260504213020 | 48 | 238 | 0.0 | 8.0 | 0.00 | 0.00 | 0.00 | 45 | 1012.2 |
| 20260504211518 | 48 | 263 | 2.0 | 7.0 | 0.00 | 0.00 | 0.00 | 46 | 1012.8 |
| 20260504210018 | 49 | 236 | 5.0 | 12.0 | 0.00 | 0.00 | 0.00 | 41 | 1012.9 |
| 20260504204518 | 49 | 279 | 2.0 | 6.0 | 0.00 | 0.00 | 0.00 | 38 | 1012.9 |
| 20260504203022 | 49 | 214 | 3.0 | 10.0 | 0.00 | 0.00 | 0.00 | 38 | 1013.0 |
| 20260504201518 | 49 | 223 | 3.0 | 10.0 | 0.00 | 0.00 | 0.00 | 34 | 1012.9 |
| 20260504200016 | 49 | 225 | 7.0 | 13.0 | 0.00 | 0.00 | 0.00 | 30 | 1012.7 |
| 20260504194528 | 51 | 311 | 2.0 | 11.0 | 0.00 | 0.00 | 0.00 | 30 | 1012.7 |
| 20260504193017 | 51 | 360 | 0.0 | 4.0 | 0.00 | 0.00 | 0.00 | 30 | 1012.5 |
| 20260504191513 | 51 | 360 | 0.0 | 3.0 | 0.00 | 0.00 | 0.00 | 28 | 1012.6 |
| 20260504190010 | 50 | 310 | 1.0 | 6.0 | 0.00 | 0.00 | 0.00 | 31 | 1012.9 |
| 20260504184511 | 49 | 292 | 2.0 | 8.0 | 0.00 | 0.00 | 0.00 | 38 | 1013.2 |
| 20260504183006 | 47 | 38 | 0.0 | 6.0 | 0.00 | 0.00 | 0.00 | 38 | 1013.5 |
| 20260504181504 | 45 | 175 | 4.0 | 12.0 | 0.00 | 0.00 | 0.00 | 49 | 1014.1 |
| 20260504180012 | 45 | 190 | 7.0 | 17.0 | 0.00 | 0.00 | 0.00 | 49 | 1014.2 |
| 20260504174504 | 47 | 257 | 7.0 | 18.0 | 0.00 | 0.00 | 0.00 | 46 | 1014.4 |
| 20260504173010 | 48 | 207 | 5.0 | 16.0 | 0.00 | 0.00 | 0.00 | 44 | 1014.0 |
| 20260504171502 | 48 | 196 | 6.0 | 12.0 | 0.00 | 0.00 | 0.00 | 42 | 1013.8 |
| 20260504081550 | 26 | 22 | 0.0 | 0.0 | 0.00 | 0.00 | 0.00 | 69 | 1016.4 |
| 20260504044525 | 35 | 22 | 0.0 | 1.0 | 0.00 | 0.00 | 0.00 | 54 | 1017.4 |
| 20260504043025 | 36 | 22 | 0.0 | 0.0 | 0.00 | 0.00 | 0.00 | 51 | 1017.8 |
| 20260504041525 | 37 | 22 | 0.0 | 0.0 | 0.00 | 0.00 | 0.00 | 50 | 1017.8 |
| 20260504040029 | 38 | 22 | 0.0 | 0.0 | 0.00 | 0.00 | 0.00 | 48 | 1017.8 |
| 20260504034537 | 39 | 22 | 0.0 | 1.0 | 0.00 | 0.00 | 0.00 | 46 | 1017.7 |
| 20260504033028 | 40 | 20 | 0.0 | 0.0 | 0.00 | 0.00 | 0.00 | 44 | 1017.7 |
| 20260504031522 | 41 | 20 | 0.0 | 0.0 | 0.00 | 0.00 | 0.00 | 41 | 1017.5 |
| 20260504030034 | 42 | 338 | 0.0 | 0.0 | 0.00 | 0.00 | 0.00 | 40 | 1017.4 |
| 20260504024522 | 44 | 338 | 0.0 | 0.0 | 0.00 | 0.00 | 0.00 | 38 | 1017.1 |
| 20260504023021 | 45 | 338 | 0.0 | 1.0 | 0.00 | 0.00 | 0.00 | 35 | 1017.1 |
| 20260504021521 | 46 | 338 | 0.0 | 4.0 | 0.00 | 0.00 | 0.00 | 30 | 1017.0 |
| 20260504020019 | 47 | 272 | 0.0 | 7.0 | 0.00 | 0.00 | 0.00 | 31 | 1016.8 |
| 20260504014520 | 47 | 273 | 0.0 | 7.0 | 0.00 | 0.00 | 0.00 | 29 | 1017.0 |
| 20260504013018 | 48 | 247 | 0.0 | 6.0 | 0.00 | 0.00 | 0.00 | 28 | 1016.6 |
| 20260504011518 | 49 | 303 | 2.0 | 11.0 | 0.00 | 0.00 | 0.00 | 28 | 1016.5 |
| 20260504010016 | 50 | 314 | 6.0 | 13.0 | 0.00 | 0.00 | 0.00 | 26 | 1016.4 |
| 20260504004518 | 51 | 360 | 0.0 | 9.0 | 0.00 | 0.00 | 0.00 | 25 | 1016.3 |